TimeEST,TemperatureF,Dew PointF,Humidity,Sea Level PressureIn,VisibilityMPH,Wind Direction,Wind SpeedMPH,Gust SpeedMPH,PrecipitationIn,Events,Conditions,WindDirDegrees,DateUTC
12:15 AM,51.8,48.2,88,30.05,5.0,Calm,Calm,-,N/A,,Mostly Cloudy,0,2012-12-09 05:15:00
12:35 AM,51.8,48.2,88,30.05,5.0,Calm,Calm,-,N/A,,Mostly Cloudy,0,2012-12-09 05:35:00
12:55 AM,50.0,48.2,94,30.06,4.0,Calm,Calm,-,N/A,,Mostly Cloudy,0,2012-12-09 05:55:00
1:15 AM,50.0,48.2,94,30.06,4.0,Calm,Calm,-,N/A,,Mostly Cloudy,0,2012-12-09 06:15:00
1:35 AM,50.0,48.2,94,30.06,4.0,Calm,Calm,-,N/A,,Mostly Cloudy,0,2012-12-09 06:35:00
1:55 AM,50.0,48.2,94,30.07,4.0,Calm,Calm,-,N/A,,Mostly Cloudy,0,2012-12-09 06:55:00
2:15 AM,50.0,48.2,94,30.07,3.0,Calm,Calm,-,N/A,,Overcast,0,2012-12-09 07:15:00
2:35 AM,50.0,48.2,94,30.08,3.0,Calm,Calm,-,N/A,,Mostly Cloudy,0,2012-12-09 07:35:00
2:55 AM,48.2,46.4,93,30.08,2.5,Calm,Calm,-,N/A,,Mostly Cloudy,0,2012-12-09 07:55:00
3:15 AM,48.2,46.4,93,30.08,1.8,Calm,Calm,-,N/A,,Mostly Cloudy,0,2012-12-09 08:15:00
3:35 AM,48.2,48.2,100,30.08,2.5,ESE,3.5,-,N/A,,Mostly Cloudy,110,2012-12-09 08:35:00
3:55 AM,50.0,48.2,94,30.08,3.0,Calm,Calm,-,N/A,,Mostly Cloudy,0,2012-12-09 08:55:00
4:15 AM,48.2,48.2,100,30.07,2.5,Calm,Calm,-,N/A,,Overcast,0,2012-12-09 09:15:00
4:35 AM,48.2,48.2,100,30.09,3.0,Calm,Calm,-,N/A,,Overcast,0,2012-12-09 09:35:00
4:55 AM,50.0,48.2,94,30.11,3.0,Calm,Calm,-,N/A,,Overcast,0,2012-12-09 09:55:00
5:15 AM,50.0,48.2,94,30.11,3.0,Calm,Calm,-,N/A,,Mostly Cloudy,0,2012-12-09 10:15:00
5:35 AM,50.0,48.2,94,30.12,4.0,Calm,Calm,-,N/A,,Mostly Cloudy,0,2012-12-09 10:35:00
5:55 AM,50.0,48.2,94,30.15,4.0,Calm,Calm,-,N/A,,Mostly Cloudy,0,2012-12-09 10:55:00
6:15 AM,48.2,48.2,100,30.15,1.8,Calm,Calm,-,0.03,,Overcast,0,2012-12-09 11:15:00
6:35 AM,50.0,48.2,94,30.15,3.0,East,3.5,-,0.03,,Overcast,80,2012-12-09 11:35:00
6:55 AM,50.0,48.2,94,30.16,3.0,NE,4.6,-,0.06,,Overcast,50,2012-12-09 11:55:00
7:15 AM,48.2,48.2,100,30.17,3.0,NE,3.5,-,0.05,,Overcast,50,2012-12-09 12:15:00
7:35 AM,48.2,48.2,100,30.17,3.0,NE,3.5,-,0.10,,Overcast,50,2012-12-09 12:35:00
7:55 AM,48.2,46.4,93,30.17,3.0,Calm,Calm,-,0.12,,Mostly Cloudy,0,2012-12-09 12:55:00
8:15 AM,48.2,46.4,93,30.19,2.5,East,3.5,-,N/A,,Overcast,90,2012-12-09 13:15:00
8:35 AM,48.2,46.4,93,30.20,2.5,ENE,5.8,-,0.02,,Overcast,60,2012-12-09 13:35:00
8:55 AM,48.2,46.4,93,30.19,2.0,East,5.8,-,0.02,,Overcast,80,2012-12-09 13:55:00
9:15 AM,48.2,48.2,100,30.19,2.0,East,5.8,-,N/A,,Overcast,80,2012-12-09 14:15:00
9:35 AM,48.2,46.4,93,30.20,3.0,East,4.6,-,N/A,,Overcast,100,2012-12-09 14:35:00
9:55 AM,48.2,46.4,93,30.20,3.0,East,6.9,-,N/A,,Overcast,90,2012-12-09 14:55:00
10:15 AM,48.2,46.4,93,30.21,3.0,ENE,3.5,-,N/A,,Overcast,70,2012-12-09 15:15:00
10:35 AM,48.2,46.4,93,30.20,5.0,East,6.9,-,N/A,,Overcast,100,2012-12-09 15:35:00
10:55 AM,48.2,46.4,93,30.19,5.0,ESE,9.2,-,N/A,,Overcast,110,2012-12-09 15:55:00
11:35 AM,48.2,46.4,93,30.18,5.0,East,3.5,-,N/A,,Overcast,90,2012-12-09 16:35:00
11:55 AM,48.2,44.6,87,30.17,9.0,East,6.9,-,N/A,,Overcast,100,2012-12-09 16:55:00
12:15 PM,46.4,44.6,93,30.17,7.0,East,3.5,-,N/A,,Overcast,100,2012-12-09 17:15:00
12:35 PM,46.4,44.6,93,30.17,9.0,East,8.1,-,N/A,,Overcast,100,2012-12-09 17:35:00
12:55 PM,46.4,44.6,93,30.16,10.0,ESE,6.9,-,N/A,,Overcast,110,2012-12-09 17:55:00
1:15 PM,46.4,44.6,93,30.17,10.0,ESE,6.9,-,N/A,,Overcast,110,2012-12-09 18:15:00
1:35 PM,46.4,42.8,87,30.15,8.0,ESE,8.1,16.1,N/A,,Overcast,110,2012-12-09 18:35:00
1:55 PM,46.4,44.6,93,30.14,2.5,East,4.6,-,N/A,,Overcast,100,2012-12-09 18:55:00
2:15 PM,46.4,44.6,93,30.15,2.5,Calm,Calm,-,N/A,,Overcast,0,2012-12-09 19:15:00
2:35 PM,46.4,44.6,93,30.14,2.5,East,3.5,-,N/A,,Overcast,100,2012-12-09 19:35:00
2:55 PM,46.4,44.6,93,30.15,2.0,Calm,Calm,-,N/A,,Overcast,0,2012-12-09 19:55:00
3:15 PM,46.4,44.6,93,30.15,1.8,East,3.5,-,N/A,,Overcast,90,2012-12-09 20:15:00
3:35 PM,46.4,44.6,93,30.15,1.8,East,4.6,-,N/A,,Overcast,100,2012-12-09 20:35:00
3:55 PM,46.4,44.6,93,30.14,1.8,East,5.8,-,N/A,,Overcast,100,2012-12-09 20:55:00
4:15 PM,46.4,44.6,93,30.14,1.5,ESE,4.6,-,N/A,,Overcast,110,2012-12-09 21:15:00
4:35 PM,46.4,44.6,93,30.13,1.2,ESE,4.6,-,N/A,,Overcast,110,2012-12-09 21:35:00
4:55 PM,46.4,44.6,93,30.13,2.0,Calm,Calm,-,N/A,,Overcast,0,2012-12-09 21:55:00
5:15 PM,46.4,44.6,93,30.13,2.0,ESE,3.5,-,N/A,,Overcast,110,2012-12-09 22:15:00
5:35 PM,46.4,44.6,93,30.13,2.0,ESE,3.5,-,N/A,,Overcast,110,2012-12-09 22:35:00
5:55 PM,46.4,44.6,93,30.12,1.5,Calm,Calm,-,N/A,,Overcast,0,2012-12-09 22:55:00
6:15 PM,46.4,44.6,93,30.12,1.5,ESE,5.8,-,N/A,,Overcast,120,2012-12-09 23:15:00
6:35 PM,46.4,44.6,93,30.12,1.5,ESE,4.6,-,N/A,,Overcast,120,2012-12-09 23:35:00
6:55 PM,46.4,44.6,93,30.12,1.2,SE,3.5,-,N/A,,Overcast,130,2012-12-09 23:55:00
7:15 PM,46.4,44.6,93,30.12,1.2,SE,5.8,-,N/A,,Overcast,140,2012-12-10 00:15:00
7:35 PM,46.4,44.6,93,30.11,1.0,ESE,3.5,-,N/A,,Overcast,120,2012-12-10 00:35:00
7:55 PM,46.4,44.6,93,30.11,1.0,Calm,Calm,-,N/A,,Overcast,0,2012-12-10 00:55:00
8:15 PM,46.4,44.6,93,30.10,1.2,Calm,Calm,-,N/A,,Overcast,0,2012-12-10 01:15:00
8:35 PM,46.4,44.6,93,30.09,1.0,Calm,Calm,-,N/A,,Overcast,0,2012-12-10 01:35:00
8:55 PM,46.4,44.6,93,30.08,0.8,Calm,Calm,-,N/A,,Overcast,0,2012-12-10 01:55:00
9:15 PM,46.4,44.6,93,30.07,1.0,East,3.5,-,N/A,,Overcast,90,2012-12-10 02:15:00
9:35 PM,46.4,44.6,93,30.05,1.2,ESE,5.8,-,N/A,,Overcast,120,2012-12-10 02:35:00
9:55 PM,46.4,44.6,93,30.05,1.5,Calm,Calm,-,N/A,,Overcast,0,2012-12-10 02:55:00
10:15 PM,46.4,44.6,93,30.04,1.5,SE,3.5,-,N/A,,Overcast,130,2012-12-10 03:15:00
10:35 PM,46.4,44.6,93,30.04,1.0,Calm,Calm,-,N/A,,Overcast,0,2012-12-10 03:35:00
10:55 PM,46.4,44.6,93,30.03,0.5,SSE,3.5,-,N/A,,Overcast,150,2012-12-10 03:55:00
11:15 PM,46.4,44.6,93,30.02,0.5,SE,6.9,-,N/A,,Overcast,140,2012-12-10 04:15:00
11:35 PM,46.4,44.6,93,30.01,0.5,SE,3.5,-,N/A,,Overcast,140,2012-12-10 04:35:00
11:55 PM,46.4,44.6,93,29.99,0.5,SSE,4.6,-,N/A,,Overcast,150,2012-12-10 04:55:00